Weather History for KECP - May, 2013

Change the Weather History Date:

Sunday, May 12, 2013

  Actual Average Record
Temperature  
Mean Temperature 72 °F -  
Max Temperature 82 °F - 93 °F (2011)
Min Temperature 61 °F - 61 °F (2013)
Degree Days  
Heating Degree Days 0    
Cooling Degree Days 7    
Growing Degree Days 23 (Base 50)    
Moisture  
Dew Point 59 °F    
Average Humidity 64    
Maximum Humidity 93    
Minimum Humidity 34    
Precipitation  
Precipitation 0.00 in - 0.14 in (2012)
Month to date precipitation  
Year to date precipitation  
Sea Level Pressure  
Sea Level Pressure 30.06 in    
Wind  
Wind Speed 5 mph (NW)    
Max Wind Speed 18 mph    
Max Gust Speed 52 mph    
Visibility 9 miles    
Events      
T = Trace of Precipitation, MM = Missing Value Source: NWS Daily Summary

Daily Weather History Graph

Daily Weather History Graph

Search for Another Location

Airport or City:

Trip Planner

Search our weather history database for the weather conditions in past years. The results will help you decide how hot, cold, wet, or windy it might be!

Date:

Astronomy

May. 12, 2013 Rise Set
Actual Time 6:50 AM EDT 8:28 PM EDT
Civil Twilight 6:24 AM EDT 8:54 PM EDT
Nautical Twilight 5:53 AM EDT 9:26 PM EDT
Astronomical Twilight 5:20 AM EDT 9:59 PM EDT
Moon 8:47 AM EDT (5/12) 10:53 PM EDT (5/12)
Length of Visible Light 14h 29m
Length of Day
13h 37m
Waxing Crescent, 6% of the Moon is Illuminated
May 12
Waxing Crescent
May 18
First Quarter
May 25
Full
May 31
Last Quarter
Jun 8
New

Hourly Weather History & Observations

Time (EDT) Temp. Heat Index Dew Point Humidity Pressure Visibility Wind Dir Wind Speed Gust Speed Precip Events Conditions
12:53 AM 66.9 °F - 64.0 °F 90% 30.02 in 9.0 mi Calm Calm - N/A   Clear
1:53 AM 66.0 °F - 64.0 °F 93% 30.01 in 8.0 mi NNW 4.6 mph - N/A   Clear
2:53 AM 66.9 °F - 64.9 °F 93% 30.00 in 10.0 mi WNW 6.9 mph - N/A   Clear
3:53 AM 66.0 °F - 64.0 °F 93% 30.00 in 9.0 mi WNW 3.5 mph - N/A   Clear
4:53 AM 64.9 °F - 63.0 °F 93% 29.99 in 8.0 mi NW 8.1 mph - N/A   Clear
5:53 AM 66.0 °F - 63.0 °F 90% 30.02 in 9.0 mi NW 5.8 mph - N/A   Partly Cloudy
6:09 AM 64.4 °F - 62.6 °F 94% 29.99 in 8.0 mi NNW 3.5 mph - N/A   Mostly Cloudy
6:53 AM 64.9 °F - 63.0 °F 93% 30.05 in 3.0 mi NW 5.8 mph - N/A   Mostly Cloudy
7:26 AM 64.4 °F - 62.6 °F 94% 30.02 in 4.0 mi Calm Calm - N/A   Partly Cloudy
7:53 AM 66.0 °F - 64.0 °F 93% 30.06 in 4.0 mi NW 3.5 mph - N/A   Clear
8:53 AM 69.1 °F - 63.0 °F 81% 30.08 in 10.0 mi North 6.9 mph - N/A   Partly Cloudy
9:53 AM 72.0 °F - 61.0 °F 68% 30.09 in 10.0 mi North 8.1 mph - N/A   Scattered Clouds
10:53 AM 75.0 °F - 61.0 °F 62% 30.09 in 10.0 mi Variable 3.5 mph - N/A   Scattered Clouds
11:53 AM 77.0 °F - 59.0 °F 54% 30.09 in 10.0 mi North - - N/A   Clear
12:53 PM 79.0 °F - 60.1 °F 52% 30.09 in 10.0 mi NW 10.4 mph - N/A   Scattered Clouds
1:53 PM 80.1 °F 80.4 °F 57.0 °F 45% 30.08 in 10.0 mi West 8.1 mph - N/A   Scattered Clouds
2:53 PM 80.1 °F 79.9 °F 53.1 °F 39% 30.07 in 10.0 mi West 9.2 mph - N/A   Clear
3:53 PM 82.0 °F - 51.1 °F 34% 30.06 in 10.0 mi NW 8.1 mph - N/A   Clear
4:53 PM 80.1 °F - 51.1 °F 36% 30.06 in 10.0 mi NW 10.4 mph - N/A   Clear
5:53 PM 80.1 °F - 52.0 °F 38% 30.06 in 10.0 mi NW 10.4 mph - N/A   Clear
6:53 PM 78.1 °F - 53.1 °F 42% 30.06 in 10.0 mi NNW 6.9 mph - N/A   Clear
7:53 PM 73.9 °F - 55.9 °F 53% 30.06 in 10.0 mi NNW 4.6 mph - N/A   Clear
8:53 PM 71.1 °F - 57.0 °F 61% 30.08 in 10.0 mi NW 3.5 mph - N/A   Clear
9:53 PM 68.0 °F - 59.0 °F 73% 30.10 in 10.0 mi NW 5.8 mph - N/A   Clear
10:53 PM 64.9 °F - 57.0 °F 75% 30.11 in 10.0 mi NW 5.8 mph - N/A   Clear
11:53 PM 66.0 °F - 55.0 °F 68% 30.12 in 10.0 mi NW 8.1 mph - N/A   Clear